sat.trackr.live / text

‹ back to catalog

STARLINK-37493

NORAD 68910 · 2026-097R

PAYLOAD ACTIVE UNKNOWN

§ Identity

Operator
Country
US
Launch date
2026-04-30
Launch site
AFWTR
Launch vehicle
Mass (kg)
RCS (m²)

Purposes: comms

External: N2YO · Heavens-Above · Gunter

§ Orbital elements

Epoch: 2026-09-19T23:58:30.322848Z

Period
93.91 min
Inclination
97.2848°
Eccentricity
0.0001318
Mean motion
15.33447714 rev/d
Perigee alt
464.6 km
Apogee alt
466.4 km
Semi-major
6,843.7 km
B*
3.6202e-4
RAAN
97.1263°
Arg perigee
87.2612°
Mean anomaly
272.8782°
Rev number
2,201

§ Raw data

STARLINK-374931 68910U 26097R   26262.99896207  .00011631  00000+0  36202-3 0  99932 68910  97.2848  97.1263 0001318  87.2612 272.8782 15.33447714 22011

JSON: /api/v1/satellites/68910 · /tle

For live sub-satellite position, see the globe view (requires WebGL).

§ Visibility from observer

Set your observer location to see the next 7 days of passes ≥ 10°. The values pass through the URL so the page stays shareable.

No JS? Fill the form by hand. The geolocation button needs JavaScript.